Back to catalog

ARASENE

AliveScienceHEO
NORAD 22654·PAYLOAD·🇫🇷 France

Launched May 12, 1993 from Guiana Space Centre

Loading…

Next Passes (next 24 hours)

TLE

FreshSource: Space-Track

Epoch: Sep 13, 2026, 20:26 UTC

1 22654U 93031B   26256.85142911 -.00000141  00000-0  00000-0 0  9994
2 22654   5.4451  44.4735 2865660 342.9611 239.8389  1.42202680168682

Track ARASENE in real time with AllMySat

Download on the App Store